Time,TemperatureF,DewpointF,PressureIn,WindDirection,WindDirectionDegrees,WindSpeedMPH,WindSpeedGustMPH,Humidity,HourlyPrecipIn,Conditions,Clouds,dailyrainin,SoftwareType,DateUTC
2013-07-11 00:02:00,80.0,80.0,30.04,NNW,336,1.0,-999.0,100,-99.99,,,-99.99,,2013-07-11 04:02:00,
2013-07-11 00:12:00,80.0,80.0,30.04,NNW,336,1.0,-999.0,100,-99.99,,,-99.99,,2013-07-11 04:12:00,
2013-07-11 00:22:00,80.0,80.0,30.04,NNW,331,1.0,-999.0,100,-99.99,,,-99.99,,2013-07-11 04:22:00,
2013-07-11 00:32:00,80.0,80.0,30.03,NE,52,1.0,-999.0,100,-99.99,,,-99.99,,2013-07-11 04:32:00,
2013-07-11 00:42:00,80.0,80.0,30.03,NE,52,1.0,-999.0,100,-99.99,,,-99.99,,2013-07-11 04:42:00,
2013-07-11 00:53:00,80.0,80.0,30.03,North,355,1.0,-999.0,100,-99.99,,,-99.99,,2013-07-11 04:53:00,
2013-07-11 01:02:00,80.0,80.0,30.03,North,5,2.0,-999.0,100,-99.99,,,-99.99,,2013-07-11 05:02:00,
2013-07-11 01:12:00,80.0,80.0,30.03,North,5,2.0,-999.0,100,-99.99,,,-99.99,,2013-07-11 05:12:00,
2013-07-11 01:22:00,80.0,80.0,30.02,North,360,2.0,-999.0,100,-99.99,,,-99.99,,2013-07-11 05:22:00,
2013-07-11 01:32:00,80.0,80.0,30.02,North,360,2.0,-999.0,100,-99.99,,,-99.99,,2013-07-11 05:32:00,
2013-07-11 01:43:00,80.0,80.0,30.02,North,360,3.0,-999.0,100,-99.99,,,-99.99,,2013-07-11 05:43:00,
2013-07-11 01:52:00,80.0,80.0,30.02,NNW,331,2.0,-999.0,100,-99.99,,,-99.99,,2013-07-11 05:52:00,
2013-07-11 02:01:00,80.0,80.0,30.02,NNW,329,2.0,-999.0,100,-99.99,,,-99.99,,2013-07-11 06:01:00,
2013-07-11 02:12:00,80.0,80.0,30.02,NNW,329,2.0,-999.0,100,-99.99,,,-99.99,,2013-07-11 06:12:00,
2013-07-11 02:22:00,80.0,80.0,30.02,NNW,333,2.0,-999.0,100,-99.99,,,-99.99,,2013-07-11 06:22:00,
2013-07-11 02:43:00,80.0,80.0,30.02,NNW,334,2.0,-999.0,100,-99.99,,,-99.99,,2013-07-11 06:43:00,
2013-07-11 02:53:00,80.0,80.0,30.02,NNE,32,3.0,-999.0,100,-99.99,,,-99.99,,2013-07-11 06:53:00,
2013-07-11 03:02:00,80.0,80.0,30.02,NNW,346,3.0,-999.0,100,-99.99,,,-99.99,,2013-07-11 07:02:00,
2013-07-11 03:12:00,80.0,80.0,30.02,NNW,346,3.0,-999.0,100,-99.99,,,-99.99,,2013-07-11 07:12:00,
2013-07-11 04:02:00,80.0,80.0,30.00,ENE,64,3.0,-999.0,100,-99.99,,,-99.99,,2013-07-11 08:02:00,
2013-07-11 04:12:00,80.0,80.0,30.00,ENE,64,3.0,-999.0,100,-99.99,,,-99.99,,2013-07-11 08:12:00,
2013-07-11 04:22:00,80.0,80.0,29.99,North,355,3.0,-999.0,100,-99.99,,,-99.99,,2013-07-11 08:22:00,
2013-07-11 04:34:00,80.0,80.0,29.99,NNE,25,4.0,-999.0,100,-99.99,,,-99.99,,2013-07-11 08:34:00,
2013-07-11 04:43:00,80.0,80.0,29.99,NNE,25,4.0,-999.0,100,-99.99,,,-99.99,,2013-07-11 08:43:00,
2013-07-11 04:53:00,80.0,80.0,29.99,NNW,341,3.0,-999.0,100,-99.99,,,-99.99,,2013-07-11 08:53:00,
2013-07-11 05:03:00,80.0,80.0,29.99,North,355,4.0,-999.0,100,-99.99,,,-99.99,,2013-07-11 09:03:00,
2013-07-11 05:12:00,80.0,80.0,29.99,North,355,4.0,-999.0,100,-99.99,,,-99.99,,2013-07-11 09:12:00,
2013-07-11 05:22:00,80.0,80.0,30.00,North,360,2.0,-999.0,100,-99.99,,,-99.99,,2013-07-11 09:22:00,
2013-07-11 05:33:00,80.0,80.0,30.00,North,360,2.0,-999.0,100,-99.99,,,-99.99,,2013-07-11 09:33:00,
2013-07-11 05:43:00,80.0,80.0,30.00,North,360,2.0,-999.0,100,-99.99,,,-99.99,,2013-07-11 09:43:00,
2013-07-11 05:53:00,80.0,80.0,30.00,North,5,2.0,-999.0,100,-99.99,,,-99.99,,2013-07-11 09:53:00,
2013-07-11 06:01:00,80.0,80.0,30.00,North,360,2.0,-999.0,100,-99.99,,,-99.99,,2013-07-11 10:01:00,
2013-07-11 06:12:00,80.0,80.0,30.00,North,360,2.0,-999.0,100,-99.99,,,-99.99,,2013-07-11 10:12:00,
2013-07-11 06:22:00,80.0,80.0,30.00,NNE,32,2.0,-999.0,100,-99.99,,,-99.99,,2013-07-11 10:22:00,
2013-07-11 06:43:00,80.0,80.0,30.00,NE,40,2.0,-999.0,100,-99.99,,,-99.99,,2013-07-11 10:43:00,
2013-07-11 06:52:00,80.0,80.0,30.00,NE,38,2.0,-999.0,100,-99.99,,,-99.99,,2013-07-11 10:52:00,
2013-07-11 07:02:00,80.0,80.0,30.01,NE,34,2.0,-999.0,100,-99.99,,,-99.99,,2013-07-11 11:02:00,
2013-07-11 07:12:00,80.0,80.0,30.01,NE,34,2.0,-999.0,100,-99.99,,,-99.99,,2013-07-11 11:12:00,
2013-07-11 07:22:00,80.0,80.0,30.00,NE,46,1.0,-999.0,100,-99.99,,,-99.99,,2013-07-11 11:22:00,
2013-07-11 08:01:00,80.0,80.0,30.01,NE,36,2.0,-999.0,100,-99.99,,,-99.99,,2013-07-11 12:01:00,
2013-07-11 08:12:00,80.0,80.0,30.01,NE,36,2.0,-999.0,100,-99.99,,,-99.99,,2013-07-11 12:12:00,
2013-07-11 08:33:00,80.0,80.0,30.01,NE,42,2.0,-999.0,100,-99.99,,,-99.99,,2013-07-11 12:33:00,
2013-07-11 08:57:00,81.0,81.0,30.01,NNW,348,2.0,-999.0,100,-99.99,,,-99.99,,2013-07-11 12:57:00,
2013-07-11 10:35:00,82.0,82.0,30.01,North,9,3.0,-999.0,100,-99.99,,,-99.99,,2013-07-11 14:35:00,
2013-07-11 12:48:00,80.0,80.0,30.00,West,266,0.0,-999.0,100,-99.99,,,-99.99,,2013-07-11 16:48:00,
2013-07-11 12:55:00,80.0,80.0,30.00,West,266,0.0,-999.0,100,-99.99,,,-99.99,,2013-07-11 16:55:00,
2013-07-11 13:03:00,82.0,82.0,30.00,North,9,2.0,-999.0,100,-99.99,,,-99.99,,2013-07-11 17:03:00,
2013-07-11 18:06:00,82.0,82.0,29.92,North,5,2.0,-999.0,100,-99.99,,,-99.99,,2013-07-11 22:06:00,
2013-07-11 18:35:00,82.0,82.0,29.92,NW,319,2.0,-999.0,100,-99.99,,,-99.99,,2013-07-11 22:35:00,
2013-07-11 20:26:00,82.0,82.0,29.92,North,349,2.0,-999.0,100,-99.99,,,-99.99,,2013-07-12 00:26:00,
2013-07-11 20:37:00,81.0,81.0,29.92,North,355,3.0,-999.0,100,-99.99,,,-99.99,,2013-07-12 00:37:00,
2013-07-11 20:45:00,81.0,81.0,29.92,NNW,347,3.0,-999.0,100,-99.99,,,-99.99,,2013-07-12 00:45:00,
2013-07-11 20:55:00,81.0,81.0,29.92,NW,323,3.0,-999.0,100,-99.99,,,-99.99,,2013-07-12 00:55:00,
2013-07-11 21:05:00,81.0,81.0,29.92,NW,323,3.0,-999.0,100,-99.99,,,-99.99,,2013-07-12 01:05:00,
2013-07-11 21:14:00,81.0,81.0,29.92,NW,315,3.0,-999.0,100,-99.99,,,-99.99,,2013-07-12 01:14:00,
2013-07-11 21:37:00,81.0,81.0,29.93,WSW,238,3.0,-999.0,100,-99.99,,,-99.99,,2013-07-12 01:37:00,
2013-07-11 22:17:00,81.0,81.0,29.94,North,360,4.0,-999.0,100,-99.99,,,-99.99,,2013-07-12 02:17:00,
2013-07-11 22:26:00,81.0,81.0,29.94,North,360,4.0,-999.0,100,-99.99,,,-99.99,,2013-07-12 02:26:00,
2013-07-11 22:36:00,81.0,81.0,29.94,NNE,26,4.0,-999.0,100,-99.99,,,-99.99,,2013-07-12 02:36:00,
2013-07-11 22:45:00,81.0,81.0,29.94,North,360,3.0,-999.0,100,-99.99,,,-99.99,,2013-07-12 02:45:00,
2013-07-11 22:54:00,81.0,81.0,29.94,North,360,4.0,-999.0,100,-99.99,,,-99.99,,2013-07-12 02:54:00,
2013-07-11 23:04:00,81.0,81.0,29.94,North,360,4.0,-999.0,100,-99.99,,,-99.99,,2013-07-12 03:04:00,
2013-07-11 23:37:00,82.0,82.0,29.94,WNW,292,4.0,-999.0,100,-99.99,,,-99.99,,2013-07-12 03:37:00,
2013-07-11 23:46:00,82.0,82.0,29.93,North,355,3.0,-999.0,100,-99.99,,,-99.99,,2013-07-12 03:46:00,
2013-07-11 23:54:00,82.0,82.0,29.94,North,10,4.0,-999.0,100,-99.99,,,-99.99,,2013-07-12 03:54:00,